CW0230 Weather Reports


Display with metric or nautical units.
time (UTC)temp
F
wind
direction
speed
MPH
gust
MPH
rain 1hr
in
rain 24hr
in
rain mn
in
humidity
%
barometer
mb
20260508154504 67 144 6.0 12.0 0.00 0.01 0.01 54 1015.1
20260508154004 67 167 6.0 12.0 0.00 0.01 0.01 53 1015.1
20260508153504 68 156 5.0 12.0 0.00 0.01 0.01 52 1015.1
20260508153005 68 170 7.0 12.0 0.00 0.01 0.01 52 1015.2
20260508151004 68 164 3.0 12.0 0.00 0.01 0.01 47 1015.1
20260508150504 68 106 6.0 10.0 0.00 0.01 0.01 47 1015.1
20260508145004 68 159 6.0 10.0 0.00 0.01 0.01 49 1015.1
20260508144504 68 176 5.0 13.0 0.00 0.01 0.01 47 1015.1
20260508144004 69 161 7.0 13.0 0.00 0.01 0.01 49 1015.2
20260508142504 68 181 6.0 13.0 0.00 0.01 0.01 46 1015.2
20260508142005 68 144 8.0 13.0 0.00 0.01 0.01 43 1015.2
20260508141005 68 128 5.0 12.0 0.00 0.01 0.01 47 1015.1
20260508135005 69 169 7.0 13.0 0.00 0.01 0.01 51 1015.1
20260508134506 69 166 6.0 13.0 0.00 0.01 0.01 51 1015.1
20260508131504 69 180 5.0 14.0 0.00 0.01 0.01 52 1015.1
20260508130504 68 220 5.0 13.0 0.00 0.01 0.01 53 1015.0
20260508125504 68 187 7.0 13.0 0.00 0.01 0.01 51 1015.0
20260508125004 67 178 6.0 12.0 0.00 0.01 0.01 52 1015.1
20260508124504 67 186 6.0 12.0 0.00 0.01 0.01 54 1015.0
20260508123505 66 147 9.0 13.0 0.00 0.01 0.01 54 1015.0
20260508123005 66 157 7.0 15.0 0.00 0.01 0.01 54 1015.0
20260508122504 66 157 7.0 15.0 0.00 0.01 0.01 55 1015.0
20260508121004 65 107 3.0 12.0 0.00 0.01 0.01 62 1014.9
20260508120504 65 155 6.0 12.0 0.00 0.01 0.01 63 1015.0
20260508114005 65 143 6.0 16.0 0.00 0.01 0.01 60 1015.1
20260508111504 65 175 6.0 16.0 0.00 0.01 0.01 63 1015.0
20260508110504 65 111 7.0 14.0 0.00 0.01 0.01 65 1015.0
20260508104504 64 136 6.0 9.0 0.00 0.01 0.01 69 1015.0
20260508104004 64 152 5.0 12.0 0.00 0.01 0.01 69 1015.0
20260508103504 63 157 6.0 12.0 0.00 0.01 0.01 70 1015.1
20260508095506 62 163 5.0 12.0 0.00 0.01 0.01 72 1015.1
20260508093504 60 155 3.0 10.0 0.00 0.01 0.01 78 1015.2
20260508091505 57 159 4.0 12.0 0.00 0.01 0.01 83 1015.1
20260508091004 57 168 5.0 12.0 0.00 0.01 0.01 83 1015.2
20260508090504 57 122 4.0 7.0 0.00 0.01 0.01 83 1015.2
20260508090005 56 128 3.0 7.0 0.00 0.01 0.01 83 1015.2
20260508085505 56 159 3.0 8.0 0.00 0.01 0.01 84 1015.2
20260508085005 56 115 4.0 8.0 0.00 0.01 0.01 84 1015.2
20260508083504 56 128 5.0 9.0 0.00 0.01 0.01 85 1015.2
20260508082004 56 119 6.0 10.0 0.00 0.01 0.01 85 1015.3
20260508075505 56 98 3.0 9.0 0.00 0.01 0.01 88 1014.9
20260508074005 55 120 4.0 7.0 0.00 0.01 0.01 87 1014.9
20260508073505 55 106 3.0 7.0 0.00 0.01 0.01 88 1014.9
20260508073005 55 58 3.0 10.0 0.00 0.01 0.01 88 1014.9
20260508072004 55 116 5.0 10.0 0.00 0.01 0.01 88 1014.8
20260508071504 54 89 3.0 10.0 0.00 0.01 0.01 89 1014.8
20260508065506 53 100 3.0 6.0 0.00 0.01 0.01 91 1014.7
20260508064004 52 87 1.0 8.0 0.00 0.01 0.01 90 1014.7
20260508060505 52 94 3.0 8.0 0.00 0.01 0.01 91 1014.6
20260508055004 51 80 4.0 7.0 0.00 0.01 0.01 91 1014.5
20260508054505 51 82 2.0 5.0 0.00 0.01 0.01 92 1014.5
20260508054004 51 38 0.0 3.0 0.00 0.01 0.01 92 1014.5
20260508053505 51 50 1.0 3.0 0.00 0.01 0.01 91 1014.4
20260508052504 51 84 1.0 5.0 0.00 0.01 0.01 91 1014.4
20260508051504 51 43 0.0 3.0 0.00 0.01 0.01 91 1014.3
20260508051004 51 5 1.0 2.0 0.00 0.01 0.01 91 1014.3
20260508050504 51 5 0.0 3.0 0.00 0.01 0.01 91 1014.3
20260508045504 51 43 1.0 3.0 0.00 0.01 0.01 91 1014.4
20260508044504 51 26 2.0 3.0 0.00 0.01 0.01 91 1014.3
20260508044005 51 44 1.0 3.0 0.00 0.01 0.01 91 1014.3
20260508043504 51 62 1.0 5.0 0.00 0.01 0.01 91 1014.3
20260508042504 51 47 2.0 5.0 0.00 0.01 0.01 91 1014.3
20260508040504 51 19 1.0 3.0 0.00 0.01 0.01 91 1014.4
20260508035004 51 32 0.0 3.0 0.01 0.01 0.01 90 1014.5
20260508033005 51 355 2.0 3.0 0.01 0.01 0.01 90 1014.4
20260508032504 51 35 1.0 5.0 0.01 0.01 0.01 90 1014.5
20260508031504 51 64 1.0 5.0 0.01 0.01 0.01 90 1014.6
20260508031004 51 127 1.0 3.0 0.01 0.01 0.01 89 1014.7
20260508030504 51 50 0.0 3.0 0.01 0.01 0.01 89 1014.6
20260508025004 51 95 2.0 5.0 0.00 0.00 0.00 88 1014.7
20260508023504 51 140 2.0 6.0 0.00 0.00 0.00 87 1014.8
20260508021004 52 82 2.0 5.0 0.00 0.00 0.00 87 1014.7
20260508020504 52 113 1.0 3.0 0.00 0.00 0.00 87 1014.8
20260508020004 52 136 2.0 3.0 0.00 0.00 0.00 86 1014.8
20260508015006 52 142 2.0 6.0 0.00 0.00 0.00 85 1014.9
20260508014505 52 140 1.0 7.0 0.00 0.00 0.00 84 1014.9
20260508014004 52 148 3.0 7.0 0.00 0.00 0.00 84 1015.0
20260508013504 52 142 2.0 8.0 0.00 0.00 0.00 83 1014.9
20260508011505 53 87 1.0 5.0 0.00 0.00 0.00 82 1015.0
20260508011005 53 127 2.0 6.0 0.00 0.00 0.00 82 1015.0
20260508010504 53 133 3.0 6.0 0.00 0.00 0.00 81 1015.0
20260508004504 53 110 2.0 5.0 0.00 0.00 0.00 81 1015.0
20260508003505 53 144 2.0 6.0 0.00 0.00 0.00 81 1015.0
20260508003006 53 158 2.0 7.0 0.00 0.00 0.00 81 1015.1
20260508002504 53 118 3.0 7.0 0.00 0.00 0.00 82 1015.1
20260508000504 53 132 3.0 7.0 0.00 0.00 0.00 82 1015.2
20260508000005 53 159 3.0 6.0 0.00 0.00 0.00 82 1015.2
20260507235504 53 158 3.0 6.0 0.00 0.00 0.00 83 1015.2
20260507225005 54 114 3.0 7.0 0.00 0.00 0.00 80 1015.1
20260507224004 54 115 3.0 8.0 0.00 0.00 0.00 79 1015.3
20260507223005 54 123 3.0 8.0 0.00 0.00 0.00 78 1015.2
20260507222505 54 142 3.0 8.0 0.00 0.00 0.00 77 1015.3
20260507222004 54 128 3.0 9.0 0.00 0.00 0.00 76 1015.3
20260507221504 54 113 3.0 9.0 0.00 0.00 0.00 75 1015.3
20260507220505 54 121 2.0 6.0 0.00 0.00 0.00 73 1015.4
20260507215505 55 131 4.0 7.0 0.00 0.00 0.00 71 1015.4
20260507213005 55 139 4.0 8.0 0.00 0.00 0.00 68 1015.4
20260507212504 55 119 2.0 8.0 0.00 0.00 0.00 67 1015.5
20260507212005 55 131 2.0 7.0 0.00 0.00 0.00 65 1015.4
20260507211505 55 126 4.0 8.0 0.00 0.00 0.00 64 1015.4
20260507205005 56 104 3.0 8.0 0.00 0.00 0.00 59 1015.2
20260507202005 56 136 2.0 3.0 0.00 0.00 0.00 58 1015.0
20260507200006 57 80 2.0 5.0 0.00 0.00 0.00 56 1014.8
20260507195004 57 87 1.0 3.0 0.00 0.00 0.00 56 1014.7
20260507194005 57 128 2.0 3.0 0.00 0.00 0.00 56 1014.6
20260507193504 57 128 0.0 3.0 0.00 0.00 0.00 57 1014.5
20260507192505 57 136 1.0 3.0 0.00 0.00 0.00 55 1014.6
20260507191004 57 114 2.0 5.0 0.00 0.00 0.00 54 1014.6
20260507190504 57 128 2.0 6.0 0.00 0.00 0.00 55 1014.6
20260507185504 58 173 3.0 7.0 0.00 0.00 0.00 58 1014.6
20260507184004 58 147 4.0 7.0 0.00 0.00 0.00 57 1014.6
20260507182504 58 158 3.0 8.0 0.00 0.00 0.00 58 1014.5
20260507181504 59 146 3.0 8.0 0.00 0.00 0.00 57 1014.5
20260507180005 59 147 3.0 8.0 0.00 0.00 0.00 55 1014.4
20260507175005 59 149 5.0 8.0 0.00 0.00 0.00 54 1014.3
20260507174504 59 156 5.0 8.0 0.00 0.00 0.00 55 1014.4
20260507174004 60 168 4.0 8.0 0.00 0.00 0.00 54 1014.4
20260507173505 60 171 4.0 9.0 0.00 0.00 0.00 53 1014.4
20260507172504 60 142 6.0 10.0 0.00 0.00 0.00 51 1014.4
20260507172005 61 135 6.0 10.0 0.00 0.00 0.00 51 1014.4
20260507170505 61 197 3.0 9.0 0.00 0.00 0.00 53 1014.3
20260507165504 61 165 3.0 12.0 0.00 0.00 0.00 53 1014.4
20260507165005 61 155 6.0 12.0 0.00 0.00 0.00 54 1014.4
20260507164504 61 153 5.0 9.0 0.00 0.00 0.00 53 1014.3
20260507164005 61 164 5.0 10.0 0.00 0.00 0.00 54 1014.4
20260507163504 61 149 5.0 12.0 0.00 0.00 0.00 54 1014.4